Weather History for Chattanooga, TN

Change the Weather History Date:

Sunday, July 7, 2013

  Actual Average Record
Temperature  
Mean Temperature 75 °F 80 °F  
Max Temperature 81 °F 90 °F 101 °F (1977)
Min Temperature 69 °F 69 °F 51 °F (1972)
Degree Days  
Heating Degree Days 0 0  
Month to date heating degree days 0 0  
Since 1 June heating degree days 0 2  
Since 1 July heating degree days 0 0  
Cooling Degree Days 10 15  
Month to date cooling degree days 62 101  
Year to date cooling degree days 637 642  
Since 1 June cooling degree days 461 446  
Growing Degree Days 25 (Base 50)    
Moisture  
Dew Point 71 °F    
Average Humidity 91    
Maximum Humidity 100    
Minimum Humidity 82    
Precipitation  
Precipitation 2.21 in 0.15 in 2.21 in (2013)
Month to date precipitation 6.20 1.08  
Year to date precipitation 45.34 27.95  
Snow  
Snow 0.00 in 0.00 in - ()
Month to date snowfall 0.0 0.0  
Since 1 June snowfall 0.0 0.0  
Since 1 July snowfall 0.0 0.0  
Snow Depth 0.00 in    
Sea Level Pressure  
Sea Level Pressure 30.13 in    
Wind  
Wind Speed 2 mph (SSE)    
Max Wind Speed 32 mph    
Max Gust Speed 135 mph    
Visibility 5 miles    
Events Fog , Rain    
T = Trace of Precipitation, MM = Missing Value Source: NWS Daily Summary

Daily Weather History Graph

Daily Weather History Graph

Search for Another Location

Airport:

Trip Planner

Search our weather history database for the weather conditions in past years. The results will help you decide how hot, cold, wet, or windy it might be!

Date:

Astronomy

Jul. 07, 2013 Rise Set
Actual Time 6:33 AM EDT 8:57 PM EDT
Civil Twilight 6:04 AM EDT 9:27 PM EDT
Nautical Twilight 5:27 AM EDT 10:03 PM EDT
Astronomical Twilight 4:48 AM EDT 10:43 PM EDT
Moon 6:06 AM EDT (7/7) 8:24 PM EDT (7/7)
Length of Visible Light 15h 23m
Length of Day
14h 24m
Waning Crescent, 0% of the Moon is Illuminated
Jul 7
Waning Crescent
Jul 8
New
Jul 15
First Quarter
Jul 22
Full
Jul 29
Last Quarter

Hourly Weather History & Observations

Time (EDT) Temp. Heat Index Dew Point Humidity Pressure Visibility Wind Dir Wind Speed Gust Speed Precip Events Conditions
12:00 AM 69.8 °F - 68.0 °F 94% 30.14 in 10.0 mi Calm Calm - N/A   Overcast
12:10 AM 69.8 °F - 68.0 °F 94% 30.14 in 10.0 mi Calm Calm - N/A   Overcast
12:40 AM 69.8 °F - 68.0 °F 94% 30.14 in 10.0 mi Calm Calm - N/A   Overcast
12:48 AM 69.8 °F - 68.0 °F 94% 30.14 in 10.0 mi Calm Calm - N/A   Overcast
12:53 AM 70.0 °F - 68.0 °F 93% 30.12 in 10.0 mi Calm Calm - N/A   Overcast
1:13 AM 69.8 °F - 68.0 °F 94% 30.14 in 10.0 mi Calm Calm - 0.00 in Rain Light Rain
1:53 AM 70.0 °F - 68.0 °F 93% 30.12 in 10.0 mi Calm Calm - 0.01 in Rain Light Rain
2:53 AM 69.1 °F - 68.0 °F 96% 30.10 in 10.0 mi North 3.5 mph - 0.21 in Rain Heavy Rain
3:03 AM 69.8 °F - 68.0 °F 94% 30.11 in 10.0 mi Calm Calm - 0.03 in Rain Rain
3:25 AM 69.8 °F - 68.0 °F 94% 30.11 in 10.0 mi Calm Calm - 0.08 in Rain Light Rain
3:53 AM 70.0 °F - 69.1 °F 97% 30.09 in 10.0 mi Calm Calm - 0.10 in Rain Rain
4:36 AM 69.8 °F - 69.8 °F 100% 30.11 in 10.0 mi Calm Calm - 0.05 in Rain Light Rain
4:53 AM 70.0 °F - 69.1 °F 97% 30.10 in 10.0 mi Calm Calm - 0.06 in Rain Light Rain
5:53 AM 70.0 °F - 69.1 °F 97% 30.10 in 2.5 mi Calm Calm - 0.02 in Fog , Rain Light Rain
6:39 AM 69.8 °F - 69.8 °F 100% 30.12 in 2.5 mi Calm Calm - 0.00 in Fog Patches of Fog
6:53 AM 71.1 °F - 69.1 °F 93% 30.11 in 2.0 mi Calm Calm - 0.00 in Fog , Rain Light Rain
7:53 AM 71.1 °F - 69.1 °F 93% 30.12 in 2.5 mi Calm Calm - 0.01 in Fog , Rain Light Rain
8:10 AM 71.6 °F - 69.8 °F 94% 30.15 in 1.0 mi Calm Calm - 0.00 in Fog , Rain Light Rain
8:53 AM 72.0 °F - 70.0 °F 93% 30.14 in 1.5 mi Calm Calm - 0.02 in Fog , Rain Light Rain
9:53 AM 73.0 °F - 71.1 °F 93% 30.15 in 1.5 mi Calm Calm - 0.01 in Fog , Rain Light Rain
10:26 AM 73.4 °F - 71.6 °F 94% 30.17 in 2.0 mi Calm Calm - 0.00 in Fog , Rain Light Rain
10:53 AM 73.9 °F - 71.1 °F 91% 30.15 in 2.0 mi NW 3.5 mph - 0.00 in Fog , Rain Light Rain
11:11 AM 73.4 °F - 71.6 °F 94% 30.17 in 1.0 mi NNW 5.8 mph - 0.00 in Fog , Rain Rain
11:53 AM 73.0 °F - 71.1 °F 93% 30.16 in 2.5 mi Calm Calm - 0.45 in Fog , Rain Rain
12:16 PM 73.4 °F - 71.6 °F 94% 30.17 in 3.0 mi Calm Calm - 0.02 in Rain Rain
12:53 PM 75.0 °F - 72.0 °F 90% 30.15 in 6.0 mi South 4.6 mph - 0.04 in   Mostly Cloudy
1:53 PM 75.9 °F - 72.0 °F 87% 30.14 in 9.0 mi South 10.4 mph - 0.00 in Rain Light Rain
2:53 PM 80.1 °F 84.2 °F 73.0 °F 79% 30.12 in 9.0 mi Calm Calm - 0.00 in   Mostly Cloudy
3:38 PM 80.6 °F 84.6 °F 71.6 °F 74% 30.13 in 2.0 mi Variable 3.5 mph - 0.00 in Rain Rain
3:53 PM 77.0 °F - 72.0 °F 84% 30.11 in 2.0 mi WNW 3.5 mph - 0.00 in Rain Heavy Rain
3:55 PM 77.0 °F - 71.6 °F 83% 30.13 in 1.0 mi WNW 4.6 mph - 0.01 in Rain Heavy Rain
4:23 PM 73.4 °F - 71.6 °F 94% 30.12 in 0.8 mi SE 3.5 mph - 0.63 in Rain Heavy Rain
4:30 PM 73.4 °F - 71.6 °F 94% 30.12 in 0.8 mi SSE 8.1 mph - 0.98 in Rain Heavy Rain
4:43 PM 75.2 °F - 71.6 °F 89% 30.12 in 6.0 mi Variable 5.8 mph - 1.06 in Rain Rain
4:53 PM 75.0 °F - 72.0 °F 90% 30.10 in 1.8 mi Calm Calm - 1.07 in Rain Rain
5:10 PM 75.2 °F - 73.4 °F 94% 30.11 in 6.0 mi North 3.5 mph - 0.05 in Rain Light Rain
5:35 PM 75.2 °F - 71.6 °F 89% 30.12 in 6.0 mi Calm Calm - 0.07 in Rain Light Rain
5:53 PM 77.0 °F - 72.0 °F 84% 30.10 in 6.0 mi Calm Calm - 0.08 in Rain Light Rain
6:53 PM 78.1 °F - 73.9 °F 87% 30.10 in 7.0 mi NE 3.5 mph - 0.00 in   Mostly Cloudy
7:53 PM 78.1 °F - 73.0 °F 84% 30.10 in 10.0 mi East 3.5 mph - 0.00 in   Mostly Cloudy
8:01 PM 77.0 °F - 73.4 °F 89% 30.12 in 4.0 mi East 17.3 mph 134.6 mph 0.01 in Rain Rain
8:26 PM 75.2 °F - 71.6 °F 89% 30.13 in 6.0 mi ESE 4.6 mph - 0.01 in   Mostly Cloudy
8:53 PM 73.9 °F - 72.0 °F 93% 30.12 in 3.0 mi SE 6.9 mph - 0.02 in Rain Light Rain
8:59 PM 73.4 °F - 71.6 °F 94% 30.14 in 1.5 mi SSE 6.9 mph - 0.00 in Rain Light Rain
9:14 PM 73.4 °F - 71.6 °F 94% 30.15 in 2.0 mi South 4.6 mph - 0.01 in Rain Light Rain
9:32 PM 73.4 °F - 71.6 °F 94% 30.16 in 3.0 mi South 4.6 mph - 0.01 in   Mostly Cloudy
9:53 PM 73.0 °F - 71.1 °F 93% 30.15 in 3.0 mi South 3.5 mph - 0.01 in   Mostly Cloudy
10:30 PM 73.4 °F - 71.6 °F 94% 30.18 in 2.0 mi Calm Calm - 0.00 in Rain Light Rain
10:53 PM 73.0 °F - 71.1 °F 93% 30.17 in 1.0 mi WSW 3.5 mph - 0.00 in Rain Light Rain
11:53 PM 73.0 °F - 71.1 °F 93% 30.16 in 1.0 mi Calm Calm - 0.10 in Rain Light Rain